1494813600.31,63076,15.81,74308.8,-3.95,-34.35,-34.59,0,*51
1494813601.61,63077,15.75,74306.0,-3.97,-34.95,-35.41,0,*50
1494813602.87,63078,15.81,74310.3,-3.97,-34.83,-35.17,0,*5B
1494813604.15,63079,15.81,74310.8,-3.97,-34.65,-35.01,0,*55
1494813605.43,63080,15.81,74306.0,-3.97,-34.65,-35.01,0,*53
1494813606.67,63081,15.81,74308.0,-3.97,-34.77,-35.13,0,*52
1494813607.91,63082,15.81,74308.5,-3.95,-34.89,-35.35,0,*56
1494813609.2,63083,15.81,74308.8,-3.97,-34.83,-35.23,0,*58
1494813610.47,63084,15.81,74308.0,-3.97,-34.83,-35.29,0,*55
1494813611.71,63085,15.81,74310.3,-3.95,-34.77,-35.23,0,*57
1494813612.93,63086,15.81,74308.3,-3.95,-34.77,-35.13,0,*57
1494813614.17,63087,15.81,74308.0,-3.97,-34.77,-35.17,0,*50
1494813615.44,63088,15.81,74308.0,-3.95,-34.95,-35.35,0,*51
1494813616.7,63089,15.81,74310.5,-3.95,-34.95,-35.23,0,*57
1494813617.97,63090,15.81,74308.3,-3.97,-34.95,-35.29,0,*57
1494813619.22,63091,15.81,74310.0,-3.95,-34.71,-34.95,0,*58
1494813620.49,63092,15.81,74310.3,-3.97,-35.01,-35.41,0,*57
1494813621.79,63093,15.81,74310.5,-3.97,-34.65,-34.95,0,*5D
1494813623.09,63094,15.81,74308.8,-3.97,-34.83,-35.41,0,*5A
1494813624.33,63095,15.81,74308.5,-3.99,-34.83,-35.17,0,*56
1494813625.6,63096,15.81,74308.0,-3.99,-34.95,-35.41,0,*51
1494813626.85,63097,15.81,74310.3,-3.99,-35.01,-35.41,0,*5C
1494813628.09,63098,15.81,74308.0,-3.99,-34.83,-35.29,0,*56
1494813629.34,63099,15.81,74308.0,-3.99,-34.77,-34.95,0,*5A
1494813630.56,63100,15.81,74308.0,-3.99,-34.77,-35.01,0,*57
1494813631.78,63101,15.81,74308.8,-3.99,-34.77,-35.17,0,*51
1494813633.03,63102,15.81,74310.8,-3.99,-34.83,-35.29,0,*54
1494813634.31,63103,15.81,74310.3,-3.97,-34.95,-35.29,0,*5C
1494813635.57,63104,15.75,74306.5,-3.97,-34.95,-35.17,0,*56
1494813636.82,63105,15.81,74308.0,-3.99,-34.83,-35.17,0,*5E
1494813638.1,63106,15.81,74306.5,-4.01,-34.83,-35.23,0,*5C
1494813639.35,63107,15.81,74308.0,-3.97,-34.13,-34.59,0,*50
1494813640.59,63108,15.81,74310.3,-3.97,-34.77,-35.13,0,*52
1494813641.87,63109,15.81,74310.3,-3.97,-35.01,-35.41,0,*54
1494813643.14,63110,15.75,74304.8,-3.97,-34.83,-35.13,0,*50
1494813644.41,63111,15.81,74306.0,-3.97,-34.83,-35.13,0,*51
1494813645.65,63112,15.81,74308.8,-4.01,-34.89,-35.17,0,*54
1494813646.86,63113,15.81,74310.5,-3.99,-34.89,-35.17,0,*53
1494813648.11,63114,15.81,74304.8,-3.99,-34.95,-35.29,0,*54
1494813649.35,63115,15.81,74308.5,-3.99,-34.83,-35.29,0,*52
1494813650.6,63116,15.75,74304.5,-3.99,-34.83,-35.29,0,*51
1494813651.9,63117,15.81,74308.0,-3.97,-34.83,-35.41,0,*50
1494813653.15,63118,15.81,74308.8,-3.99,-34.83,-35.29,0,*5F
1494813654.42,63119,15.81,74308.3,-3.97,-34.83,-35.29,0,*50
1494813655.71,63120,15.81,74306.3,-4.01,-34.83,-35.23,0,*58
1494813656.98,63121,15.81,74308.0,-3.99,-34.95,-35.41,0,*5C
1494813658.2,63122,15.81,74308.0,-3.99,-34.59,-35.13,0,*58
1494813659.49,63123,15.81,74304.3,-4.01,-34.83,-35.23,0,*5B
1494813660.76,63124,15.75,74304.3,-3.99,-34.95,-35.41,0,*59
1494813662.01,63125,15.75,74304.8,-3.99,-34.65,-35.13,0,*50
1494813663.26,63126,15.81,74308.8,-3.99,-34.47,-34.95,0,*5C
1494813664.48,63127,15.81,74308.0,-3.99,-34.77,-35.17,0,*55
1494813665.72,63128,15.81,74304.8,-4.01,-34.89,-35.47,0,*58
1494813666.96,63129,15.81,74308.8,-3.99,-34.83,-35.01,0,*57
1494813668.18,63130,15.81,74306.8,-3.99,-34.41,-34.77,0,*51
1494813669.42,63131,15.75,74306.3,-3.99,-34.77,-34.95,0,*59
1494813670.67,63132,15.81,74308.0,-4.01,-34.71,-35.17,0,*51
1494813671.94,63133,15.75,74304.8,-3.99,-34.95,-35.41,0,*5F
1494813673.18,63134,15.81,74308.0,-3.99,-34.59,-34.83,0,*57
1494813674.43,63135,15.81,74310.5,-3.99,-34.95,-35.29,0,*57
1494813675.67,63136,15.81,74308.3,-3.99,-34.83,-35.13,0,*5A
1494813676.92,63137,15.81,74308.0,-3.99,-34.83,-35.17,0,*5F
1494813678.14,63138,15.75,74306.8,-3.99,-34.77,-35.13,0,*5F
1494813679.41,63139,15.75,74306.0,-3.99,-34.83,-35.41,0,*52
1494813680.66,63140,15.81,74304.8,-4.01,-34.89,-35.23,0,*54
1494813681.91,63141,15.81,74304.8,-3.99,-35.01,-35.35,0,*55
1494813683.18,63142,15.75,74304.5,-4.01,-35.01,-35.35,0,*50
1494813684.41,63143,15.81,74308.8,-4.01,-34.89,-35.47,0,*55
1494813685.66,63144,15.75,74306.5,-3.99,-34.65,-35.13,0,*57
1494813686.95,63145,15.81,74308.0,-4.01,-34.83,-35.23,0,*5B
1494813688.22,63146,15.81,74308.5,-3.99,-34.65,-34.95,0,*5A
1494813689.49,63147,15.81,74308.3,-4.01,-35.01,-35.35,0,*55
1494813690.78,63148,15.81,74304.3,-4.01,-35.07,-35.35,0,*5C
1494813692.07,63149,15.81,74306.3,-4.01,-34.65,-34.83,0,*54
1494813693.32,63150,15.81,74308.3,-3.99,-34.47,-34.83,0,*5A
1494813694.57,63151,15.81,74306.3,-4.01,-34.89,-35.23,0,*54
1494813695.81,63152,15.75,74306.0,-3.99,-34.41,-34.83,0,*5E
1494813697.07,63153,15.75,74306.5,-4.01,-34.89,-35.23,0,*56
1494813698.32,63154,15.81,74306.5,-3.99,-34.95,-35.29,0,*50
1494813699.59,63155,15.81,74308.0,-3.99,-34.95,-35.41,0,*5F
1494813700.83,63156,15.81,74308.8,-3.99,-34.83,-35.13,0,*5C
1494813702.07,63157,15.75,74304.8,-3.99,-34.31,-34.59,0,*5B
1494813703.3,63158,15.75,74306.8,-3.99,-34.77,-35.29,0,*50
1494813704.54,63159,15.75,74304.5,-4.01,-35.01,-35.47,0,*5F
1494813705.79,63160,15.75,74306.5,-3.99,-34.95,-35.29,0,*57
1494813707.03,63161,15.81,74310.5,-3.99,-34.83,-35.17,0,*5C
1494813708.3,63162,15.75,74306.3,-3.99,-34.31,-34.65,0,*52
1494813709.52,63163,15.81,74306.5,-3.99,-34.77,-35.13,0,*51
1494813710.77,63164,15.81,74308.8,-3.99,-34.83,-35.17,0,*59
1494813712.01,63165,15.75,74306.5,-3.99,-34.83,-35.29,0,*55
1494813713.26,63166,15.75,74304.3,-3.99,-34.95,-35.29,0,*51
1494813714.51,63167,15.81,74308.5,-3.99,-34.65,-35.01,0,*55
1494813715.78,63168,15.75,74302.5,-3.99,-34.95,-35.41,0,*51
1494813717.03,63169,15.75,74304.3,-3.99,-34.83,-35.29,0,*59
1494813718.3,63170,15.75,74304.5,-3.99,-34.83,-35.41,0,*5F
1494813719.54,63171,15.81,74308.0,-3.99,-34.83,-35.17,0,*5D
1494813720.76,63172,15.81,74306.0,-3.99,-34.47,-34.77,0,*51
1494813722.01,63173,15.75,74306.5,-3.99,-34.31,-34.77,0,*51
1494813723.23,63174,15.81,74306.5,-3.99,-34.59,-34.77,0,*58
1494813724.48,63175,15.75,74304.8,-3.99,-34.59,-34.95,0,*55
1494813725.7,63176,15.81,74308.8,-3.99,-34.47,-34.77,0,*55
1494813726.94,63177,15.81,74306.5,-3.99,-34.59,-34.83,0,*50
1494813728.22,63178,15.75,74304.5,-3.97,-34.65,-35.13,0,*56
1494813729.44,63179,15.75,74306.0,-3.99,-34.47,-34.77,0,*5A
1494813730.68,63180,15.81,74310.8,-3.95,-34.35,-34.71,0,*53
1494813731.95,63181,15.75,74306.5,-3.97,-34.83,-35.17,0,*5C
1494813733.22,63182,15.81,74308.0,-3.97,-34.83,-35.13,0,*5B
1494813734.49,63183,15.75,74304.8,-3.97,-34.47,-34.65,0,*52
1494813735.74,63184,15.75,74302.8,-3.97,-34.77,-35.17,0,*52
1494813737.04,63185,15.81,74304.3,-3.97,-34.83,-35.41,0,*5B
1494813738.33,63186,15.75,74304.8,-3.97,-34.95,-35.41,0,*5F
1494813739.6,63187,15.75,74306.3,-3.97,-34.83,-35.17,0,*5A
1494813740.85,63188,15.75,74304.0,-3.97,-34.77,-35.01,0,*59
1494813742.13,63189,15.75,74306.0,-3.97,-34.59,-34.95,0,*58
1494813743.4,63190,15.81,74310.3,-3.97,-34.83,-35.13,0,*58
1494813744.67,63191,15.75,74306.3,-3.97,-34.41,-34.65,0,*57
1494813745.94,63192,15.81,74304.5,-3.97,-34.65,-35.01,0,*51
1494813747.18,63193,15.75,74300.3,-3.95,-34.35,-34.71,0,*51
1494813748.42,63194,15.75,74300.0,-3.95,-34.47,-34.83,0,*5E
1494813749.67,63195,15.75,74302.3,-3.97,-34.77,-35.01,0,*55
1494813750.94,63196,15.75,74304.0,-3.97,-34.59,-34.95,0,*56
1494813752.19,63197,15.81,74310.0,-3.97,-34.13,-34.47,0,*56
1494813753.44,63198,15.75,74310.0,-3.97,-34.77,-35.13,0,*5B
1494813754.73,63199,15.81,74310.8,-3.97,-34.65,-34.83,0,*51
1494813756.02,63200,15.75,74306.5,-3.97,-34.19,-34.35,0,*54
1494813757.27,63201,15.75,74306.5,-3.95,-34.19,-34.35,0,*57
1494813758.52,63202,15.75,74304.8,-3.95,-34.59,-35.07,0,*50
1494813759.76,63203,15.81,74306.5,-3.97,-34.77,-35.17,0,*5E
1494813761.06,63204,15.75,74306.8,-3.97,-34.65,-34.95,0,*51
1494813762.3,63205,15.75,74304.3,-3.95,-34.71,-35.07,0,*5D
1494813763.57,63206,15.75,74306.0,-3.93,-34.71,-35.35,0,*59
1494813764.8,63207,15.81,74304.3,-3.95,-34.89,-35.23,0,*5E
1494813766.02,63208,15.75,74302.0,-3.95,-34.77,-35.13,0,*53
1494813767.27,63209,15.81,74302.5,-3.97,-34.71,-35.13,0,*56
1494813768.51,63210,15.75,74302.0,-3.95,-34.71,-35.07,0,*59
1494813769.74,63211,15.75,74302.0,-3.95,-34.89,-35.23,0,*59
1494813771.0,63212,15.75,74302.8,-3.95,-34.83,-35.35,0,*57
1494813772.24,63213,15.75,74302.0,-3.95,-34.89,-35.35,0,*5C
1494813773.51,63214,15.75,74302.3,-3.97,-34.65,-34.71,0,*5A
1494813774.75,63215,15.81,74306.3,-3.95,-34.71,-34.95,0,*56
1494813776.0,63216,15.75,74302.3,-3.95,-34.71,-34.95,0,*55
1494813777.27,63217,15.75,74302.3,-3.97,-34.83,-35.29,0,*5D
1494813778.49,63218,15.75,74300.5,-3.95,-34.71,-34.89,0,*56
1494813779.73,63219,15.75,74300.8,-3.95,-34.65,-34.77,0,*53
1494813780.95,63220,15.75,74300.5,-3.95,-34.71,-35.13,0,*5F
1494813782.18,63221,15.75,74302.8,-3.95,-34.89,-35.23,0,*5A
1494813783.41,63222,15.75,74306.3,-3.95,-34.89,-35.23,0,*59
1494813784.68,63223,15.75,74304.5,-3.97,-34.83,-35.13,0,*53
1494813785.95,63224,15.75,74306.8,-3.95,-34.95,-35.23,0,*52
1494813787.16,63225,15.75,74304.3,-3.95,-34.77,-35.13,0,*5C
1494813788.37,63226,15.75,74302.8,-3.95,-34.41,-34.77,0,*59
1494813789.62,63227,15.75,74304.8,-3.95,-34.53,-34.77,0,*5B
1494813790.86,63228,15.75,74306.0,-3.95,-34.71,-35.07,0,*52
1494813792.1,63229,15.81,74308.5,-3.95,-34.59,-34.95,0,*53
1494813793.32,63230,15.75,74308.0,-3.95,-34.59,-34.77,0,*57
1494813794.56,63231,15.75,74306.8,-3.95,-34.53,-34.71,0,*5A
1494813795.77,63232,15.75,74304.8,-3.95,-34.41,-34.59,0,*50
1494813796.98,63233,15.75,74304.8,-3.95,-34.41,-34.77,0,*5D
1494813798.25,63234,15.75,74300.0,-3.93,-34.71,-34.95,0,*53
1494813799.49,63235,15.75,74302.8,-3.93,-34.59,-34.89,0,*55
1494813800.76,63236,15.75,74302.5,-3.93,-34.71,-34.95,0,*51
1494813802.0,63237,15.75,74304.8,-3.91,-34.53,-34.71,0,*58
1494813803.23,63238,15.75,74304.8,-3.91,-34.83,-35.17,0,*5B
1494813804.52,63239,15.75,74304.0,-3.93,-35.07,-35.35,0,*55
1494813805.74,63240,15.75,74306.0,-3.91,-35.01,-35.29,0,*52
1494813807.02,63241,15.75,74304.8,-3.93,-35.07,-35.23,0,*5D
1494813808.28,63242,15.75,74306.8,-3.91,-34.31,-34.35,0,*5E
1494813809.54,63243,15.75,74306.0,-3.91,-34.35,-34.65,0,*5E
1494813810.8,63244,15.75,74300.8,-3.91,-34.53,-34.83,0,*51
1494813812.06,63245,15.75,74304.3,-3.93,-34.41,-34.53,0,*5C
1494813813.33,63246,15.75,74302.0,-3.93,-34.53,-34.77,0,*5A
1494813814.59,63247,15.75,74304.0,-3.93,-34.71,-35.07,0,*5D
1494813815.86,63248,15.75,74302.3,-3.91,-34.35,-34.65,0,*55
1494813817.1,63249,15.75,74300.3,-3.91,-34.65,-35.01,0,*52
1494813818.34,63250,15.75,74300.5,-3.93,-34.77,-35.13,0,*58
1494813819.6,63251,15.75,74300.8,-3.91,-34.65,-34.83,0,*50
1494813820.82,63252,15.75,74302.5,-3.91,-34.59,-34.71,0,*51
1494813822.04,63253,15.75,74302.3,-3.91,-34.71,-35.01,0,*5C
1494813823.27,63254,15.75,74306.0,-3.93,-34.71,-34.89,0,*58
1494813824.54,63255,15.75,74304.5,-3.91,-34.35,-34.53,0,*5C
1494813825.75,63256,15.75,74306.0,-3.91,-34.71,-34.89,0,*58
1494813826.96,63257,15.75,74302.8,-3.91,-34.71,-34.89,0,*59
1494813828.25,63258,15.75,74302.3,-3.89,-34.53,-34.83,0,*55
1494813829.51,63259,15.75,74302.5,-3.91,-34.65,-35.07,0,*55
1494813830.75,63260,15.81,74306.3,-3.91,-34.83,-35.17,0,*56
1494813831.99,63261,15.75,74300.3,-3.91,-34.83,-35.29,0,*5A
1494813833.2,63262,15.75,74304.0,-3.91,-34.71,-35.17,0,*59
1494813834.42,63263,15.81,74306.5,-3.91,-34.71,-34.89,0,*5E
1494813835.64,63264,15.75,74302.3,-3.91,-34.71,-35.01,0,*58
1494813836.87,63265,15.75,74306.0,-3.91,-34.89,-35.07,0,*58
1494813838.13,63266,15.75,74304.0,-3.89,-34.65,-34.89,0,*57
1494813839.37,63267,15.75,74306.8,-3.91,-34.53,-34.71,0,*5D
1494813840.61,63268,15.75,74304.0,-3.91,-34.65,-34.89,0,*50
1494813841.87,63269,15.75,74304.8,-3.91,-34.83,-35.07,0,*5E
1494813843.1,63270,15.75,74304.8,-3.93,-34.77,-34.89,0,*58
1494813844.32,63271,15.75,74304.8,-3.91,-34.71,-35.01,0,*5C
1494813845.58,63272,15.75,74306.3,-3.91,-34.65,-34.83,0,*51
1494813846.83,63273,15.75,74302.5,-3.91,-34.47,-34.65,0,*58
1494813848.09,63274,15.75,74302.8,-3.91,-34.65,-34.83,0,*57
1494813849.33,63275,15.75,74302.5,-3.91,-34.65,-35.01,0,*5D
1494813850.63,63276,15.75,74300.0,-3.89,-34.35,-34.65,0,*51
1494813851.89,63277,15.75,74298.8,-3.89,-34.31,-34.47,0,*54
1494813853.14,63278,15.75,74302.0,-3.89,-34.47,-34.71,0,*5F
1494813854.41,63279,15.75,74298.8,-3.89,-34.83,-35.01,0,*50
1494813855.68,63280,15.75,74300.3,-3.89,-34.71,-34.83,0,*50
1494813856.95,63281,15.75,74300.5,-3.89,-34.83,-35.01,0,*57
1494813858.17,63282,15.75,74306.5,-3.91,-34.13,-34.19,0,*5C
1494813859.43,63283,15.75,74302.8,-3.89,-33.95,-34.19,0,*5D
1494813860.71,63284,15.75,74302.5,-3.89,-34.19,-34.35,0,*57
1494813862.0,63285,15.75,74306.0,-3.89,-34.35,-34.53,0,*58
1494813863.24,63286,15.75,74304.0,-3.87,-33.67,-33.89,0,*55
1494813864.47,63287,15.75,74300.5,-3.83,-34.13,-34.31,0,*50
1494813865.67,63288,15.75,74300.8,-3.87,-34.41,-34.59,0,*52
1494813866.87,63289,15.75,74304.8,-3.87,-34.41,-34.41,0,*5A
1494813868.1,63290,15.75,74306.0,-3.87,-34.31,-34.59,0,*5C
1494813869.31,63291,15.75,74300.0,-3.87,-33.95,-34.13,0,*5A
1494813870.54,63292,15.75,74300.5,-3.87,-33.89,-34.13,0,*54
1494813871.76,63293,15.75,74302.0,-3.83,-34.35,-34.41,0,*56
1494813873.02,63294,15.75,74300.3,-3.83,-34.35,-34.53,0,*52
1494813874.29,63295,15.75,74302.8,-3.81,-34.53,-34.77,0,*57
1494813875.5,63296,15.75,74298.0,-3.83,-34.71,-34.89,0,*57
1494813876.74,63297,15.75,74300.3,-3.83,-34.77,-35.07,0,*57
1494813877.98,63298,15.75,74300.3,-3.87,-34.71,-34.95,0,*50
1494813879.22,63299,15.75,74302.3,-3.83,-34.71,-35.07,0,*5F
1494813880.46,63300,15.75,74298.5,-3.83,-34.53,-34.77,0,*58
1494813881.7,63301,15.75,74302.5,-3.83,-34.53,-34.71,0,*5F
1494813882.91,63302,15.75,74300.3,-3.83,-34.59,-34.71,0,*56
1494813884.13,63303,15.75,74300.3,-3.83,-34.59,-34.77,0,*51
1494813885.34,63304,15.75,74296.8,-3.83,-34.71,-34.89,0,*5D
1494813886.58,63305,15.75,74302.5,-3.81,-34.71,-34.89,0,*5E
1494813887.82,63306,15.75,74302.0,-3.83,-34.77,-35.07,0,*5E
1494813889.05,63307,15.75,74302.3,-3.83,-34.53,-34.59,0,*53
1494813890.28,63308,15.75,74306.0,-3.83,-34.35,-34.41,0,*55
1494813891.5,63309,15.75,74304.8,-3.83,-34.71,-34.77,0,*51
1494813892.71,63310,15.75,74302.8,-3.83,-34.59,-34.77,0,*53
1494813893.95,63311,15.75,74300.8,-3.81,-34.77,-34.89,0,*5D
1494813895.19,63312,15.75,74306.3,-3.83,-34.53,-34.71,0,*5D
1494813896.42,63313,15.75,74304.5,-3.83,-34.07,-34.19,0,*53
1494813897.64,63314,15.75,74304.0,-3.83,-34.35,-34.41,0,*58
1494813898.9,63315,15.75,74300.8,-3.81,-34.25,-34.53,0,*59
1494813900.11,63316,15.75,74302.8,-3.83,-34.41,-34.71,0,*5A
1494813901.32,63317,15.75,74300.3,-3.83,-34.59,-34.89,0,*55
1494813902.56,63318,15.75,74302.5,-3.81,-34.59,-34.71,0,*5F
1494813903.83,63319,15.75,74298.5,-3.81,-34.53,-34.71,0,*54
1494813905.09,63320,15.75,74302.5,-3.81,-34.53,-34.59,0,*54
1494813906.36,63321,15.75,74300.8,-3.81,-34.53,-34.77,0,*59
1494813907.62,63322,15.75,74302.0,-3.81,-34.53,-34.77,0,*5A
1494813908.88,63323,15.75,74302.8,-3.81,-34.41,-34.53,0,*5E
1494813910.15,63324,15.75,74300.3,-3.81,-34.71,-34.95,0,*50
1494813911.39,63325,15.75,74300.5,-3.81,-34.41,-34.59,0,*52
1494813912.63,63326,15.75,74300.0,-3.81,-34.59,-34.89,0,*55
1494813913.89,63327,15.75,74302.8,-3.81,-34.89,-34.95,0,*54
1494813915.13,63328,15.75,74302.8,-3.81,-34.59,-34.71,0,*5C
1494813916.37,63329,15.75,74300.3,-3.81,-34.71,-34.89,0,*50
1494813917.58,63330,15.75,74300.8,-3.83,-34.71,-34.89,0,*5A
1494813918.84,63331,15.75,74300.3,-3.81,-34.77,-35.07,0,*58
1494813920.07,63332,15.75,74298.8,-3.81,-34.89,-35.17,0,*5B
1494813921.33,63333,15.75,74298.0,-3.83,-35.07,-35.07,0,*5E
1494813922.57,63334,15.75,74298.3,-3.81,-34.59,-34.89,0,*56
1494813923.81,63335,15.75,74298.3,-3.81,-34.59,-34.59,0,*5A
1494813925.05,63336,15.75,74300.8,-3.81,-34.71,-34.89,0,*5E
1494813926.29,63337,15.75,74298.5,-3.81,-34.59,-34.77,0,*54
1494813927.54,63338,15.75,74300.8,-3.81,-34.59,-34.77,0,*5B
1494813928.75,63339,15.75,74304.3,-3.79,-34.71,-34.89,0,*56
1494813929.97,63340,15.75,74304.5,-3.79,-34.71,-35.01,0,*59
1494813931.2,63341,15.75,74300.0,-3.79,-34.53,-34.71,0,*5E
1494813932.44,63342,15.75,74300.8,-3.79,-34.83,-35.01,0,*56
1494813933.65,63343,15.75,74302.0,-3.79,-34.71,-34.89,0,*5B
1494813934.92,63344,15.75,74300.8,-3.79,-34.53,-34.65,0,*5E
1494813936.17,63345,15.75,74300.5,-3.79,-34.35,-34.35,0,*5A
1494813937.41,63346,15.75,74302.0,-3.79,-34.47,-34.53,0,*5C
1494813938.67,63347,15.75,74304.0,-3.79,-34.31,-34.31,0,*58
1494813939.93,63348,15.75,74302.3,-3.77,-34.65,-34.89,0,*5B
1494813941.19,63349,15.75,74302.5,-3.77,-34.71,-34.83,0,*55
1494813942.44,63350,15.75,74306.3,-3.77,-34.47,-34.35,0,*55
1494813943.7,63351,15.75,74304.8,-3.79,-34.31,-34.35,0,*5B
1494813944.96,63352,15.75,74300.0,-3.77,-34.47,-34.65,0,*52
1494813946.23,63353,15.75,74300.3,-3.77,-34.47,-34.53,0,*56
1494813947.51,63354,15.75,74302.0,-3.77,-34.83,-34.83,0,*54
1494813948.79,63355,15.75,74302.5,-3.77,-34.65,-34.83,0,*5D
1494813950.05,63356,15.75,74302.5,-3.77,-34.65,-34.89,0,*54
1494813951.34,63357,15.75,74300.0,-3.77,-34.65,-34.65,0,*57
1494813952.6,63358,15.75,74302.5,-3.77,-34.71,-34.83,0,*55
1494813953.86,63359,15.75,74304.5,-3.79,-34.65,-34.83,0,*5F
1494813955.12,63360,15.75,74300.3,-3.77,-34.71,-34.83,0,*5E
1494813956.38,63361,15.75,74304.3,-3.77,-34.65,-34.71,0,*57
1494813957.66,63362,15.75,74302.5,-3.77,-34.35,-34.35,0,*51
1494813958.92,63363,15.75,74304.8,-3.77,-34.65,-34.71,0,*55
1494813960.21,63364,15.75,74304.0,-3.77,-34.53,-34.65,0,*52
1494813961.45,63365,15.75,74306.0,-3.77,-34.71,-34.71,0,*56
1494813962.69,63366,15.75,74304.3,-3.77,-34.71,-34.71,0,*55
1494813963.97,63367,15.75,74304.0,-3.77,-34.83,-34.83,0,*54
1494813965.21,63368,15.75,74306.0,-3.75,-34.59,-34.65,0,*56
1494813966.46,63369,15.75,74304.3,-3.73,-34.47,-34.59,0,*51
1494813967.67,63370,15.75,74306.5,-3.75,-34.47,-34.59,0,*5F
1494813968.88,63371,15.75,74300.3,-3.75,-34.47,-34.59,0,*5E
1494813970.13,63372,15.75,74300.5,-3.75,-34.47,-34.65,0,*52
1494813971.39,63373,15.75,74300.8,-3.75,-34.65,-34.83,0,*5B
1494813972.63,63374,15.75,74300.3,-3.75,-34.77,-34.95,0,*58
1494813973.89,63375,15.75,74302.8,-3.75,-34.95,-35.07,0,*5F
1494813975.18,63376,15.75,74302.0,-3.73,-34.83,-34.95,0,*57
1494813976.44,63377,15.75,74300.5,-3.75,-34.83,-34.95,0,*50
1494813977.71,63378,15.75,74300.5,-3.75,-34.95,-34.95,0,*58
1494813978.97,63379,15.75,74300.5,-3.75,-34.83,-35.07,0,*54
1494813980.2,63380,15.75,74302.5,-3.75,-35.07,-35.17,0,*5E
1494813981.44,63381,15.75,74304.3,-3.75,-34.77,-35.07,0,*58
1494813982.68,63382,15.75,74302.5,-3.75,-34.77,-34.95,0,*51
1494813983.94,63383,15.75,74300.3,-3.75,-34.95,-35.07,0,*56
1494813985.2,63384,15.75,74300.8,-3.75,-35.07,-35.07,0,*5B
1494813986.41,63385,15.75,74300.5,-3.75,-35.01,-35.17,0,*5D
1494813987.65,63386,15.75,74302.3,-3.77,-35.01,-35.01,0,*5B
1494813988.92,63387,15.75,74300.8,-3.75,-34.95,-34.95,0,*58
1494813990.15,63388,15.75,74302.8,-3.75,-34.77,-34.83,0,*5C
1494813991.39,63389,15.75,74300.5,-3.75,-35.01,-35.07,0,*50
1494813992.68,63390,15.75,74300.8,-3.73,-34.65,-34.83,0,*50
1494813993.89,63391,15.75,74304.3,-3.75,-34.47,-34.59,0,*50
1494813995.14,63392,15.75,74304.0,-3.75,-34.59,-34.65,0,*53
1494813996.4,63393,15.75,74302.3,-3.75,-34.65,-34.83,0,*55
1494813997.66,63394,15.75,74300.5,-3.75,-34.95,-35.07,0,*50
1494813998.92,63395,15.75,74298.8,-3.75,-34.95,-35.07,0,*51
1494814000.15,63396,15.75,74300.3,-3.75,-35.07,-35.17,0,*59
1494814001.4,63397,15.75,74304.8,-3.77,-35.13,-35.23,0,*58
1494814002.64,63398,15.75,74302.0,-3.77,-35.01,-35.13,0,*57
1494814003.91,63399,15.75,74302.0,-3.77,-35.07,-35.29,0,*59
1494814005.19,63400,15.75,74302.0,-3.77,-35.07,-35.23,0,*54
1494814006.47,63401,15.75,74300.3,-3.77,-34.83,-34.83,0,*53
1494814007.7,63402,15.75,74300.5,-3.79,-34.65,-34.71,0,*5B
1494814008.94,63403,15.75,74296.8,-3.77,-35.01,-35.13,0,*52
1494814010.2,63404,15.75,74300.0,-3.77,-35.07,-35.13,0,*53
1494814011.46,63405,15.75,74302.5,-3.77,-34.71,-34.83,0,*5A
1494814012.73,63406,15.75,74302.3,-3.77,-34.83,-35.01,0,*5F
1494814013.97,63407,15.75,74300.5,-3.77,-35.01,-35.13,0,*56
1494814015.23,63408,15.75,74306.0,-3.77,-35.07,-35.29,0,*56
1494814016.49,63409,15.75,74304.3,-3.77,-35.01,-35.23,0,*5B
1494814017.77,63410,15.75,74302.0,-3.77,-34.83,-34.83,0,*53
1494814019.01,63411,15.75,74304.8,-3.79,-34.83,-35.01,0,*57
1494814020.22,63412,15.75,74304.3,-3.79,-34.71,-34.89,0,*58
1494814021.48,63413,15.75,74302.3,-3.77,-35.07,-35.01,0,*56
1494814022.72,63414,15.75,74302.3,-3.77,-34.89,-35.01,0,*56
1494814023.98,63415,15.75,74300.8,-3.77,-34.53,-34.47,0,*53
1494814025.26,63416,15.75,74302.0,-3.77,-34.35,-34.53,0,*55
1494814026.53,63417,15.75,74304.5,-3.79,-34.53,-34.53,0,*5A
1494814027.79,63418,15.75,74300.0,-3.77,-34.65,-34.71,0,*5E
1494814029.05,63419,15.75,74296.8,-3.77,-34.71,-34.83,0,*57
1494814030.28,63420,15.75,74298.0,-3.75,-34.77,-34.83,0,*59
1494814031.5,63421,15.75,74298.0,-3.75,-34.77,-34.77,0,*53
1494814032.76,63422,15.75,74300.5,-3.77,-34.71,-34.83,0,*5F
1494814033.99,63423,15.75,74302.3,-3.77,-34.71,-34.89,0,*54
1494814035.22,63424,15.75,74300.0,-3.77,-34.89,-35.13,0,*56
1494814036.49,63425,15.75,74302.5,-3.77,-34.83,-35.01,0,*5E
1494814037.73,63426,15.75,74300.3,-3.77,-35.01,-35.01,0,*56
1494814038.99,63427,15.75,74300.8,-3.77,-34.83,-35.13,0,*5F
1494814040.22,63428,15.75,74302.8,-3.77,-34.89,-35.01,0,*59
1494814041.46,63429,15.75,74300.0,-3.77,-35.01,-35.01,0,*59
1494814042.72,63430,15.75,74300.0,-3.77,-34.71,-34.83,0,*5C
1494814043.96,63431,15.75,74296.0,-3.77,-35.01,-35.13,0,*53
1494814045.17,63432,15.75,74300.5,-3.79,-35.13,-35.01,0,*5E
1494814046.41,63433,15.75,74300.3,-3.79,-35.07,-35.13,0,*59
1494814047.64,63434,15.75,74302.0,-3.77,-35.13,-35.13,0,*55
1494814048.87,63435,15.75,74298.5,-3.77,-35.13,-35.13,0,*54
1494814050.15,63436,15.75,74300.0,-3.77,-34.53,-34.53,0,*57
1494814051.41,63437,15.75,74298.8,-3.77,-34.71,-34.83,0,*5B
1494814052.7,63438,15.75,74300.8,-3.77,-34.65,-34.65,0,*59
1494814053.96,63439,15.75,74300.3,-3.77,-34.71,-34.83,0,*55
1494814055.25,63440,15.75,74300.3,-3.77,-34.53,-34.65,0,*53
1494814056.49,63441,15.75,74300.5,-3.77,-35.01,-35.13,0,*54
1494814057.75,63442,15.75,74296.3,-3.77,-34.71,-34.83,0,*59
1494814059.01,63443,15.75,74296.8,-3.77,-34.83,-34.89,0,*5F
1494814060.24,63444,15.75,74300.5,-3.79,-34.71,-34.83,0,*51
1494814061.53,63445,15.75,74300.5,-3.77,-34.53,-34.65,0,*56
1494814062.81,63446,15.75,74300.3,-3.77,-34.35,-34.35,0,*50
1494814064.02,63447,15.75,74302.0,-3.75,-34.41,-34.47,0,*55
1494814065.28,63448,15.75,74298.8,-3.77,-34.71,-34.83,0,*53
1494814066.51,63449,15.75,74300.3,-3.75,-34.77,-34.83,0,*56
1494814067.76,63450,15.75,74302.3,-3.73,-34.59,-34.59,0,*53
1494814068.97,63451,15.75,74296.8,-3.75,-34.59,-34.47,0,*5B
1494814070.18,63452,15.75,74302.8,-3.75,-34.47,-34.41,0,*51
1494814071.45,63453,15.75,74302.5,-3.75,-34.65,-34.65,0,*56
1494814072.71,63454,15.75,74302.8,-3.75,-34.95,-34.83,0,*56
1494814073.92,63455,15.75,74300.3,-3.75,-34.47,-34.59,0,*5F
1494814075.18,63456,15.75,74300.3,-3.75,-34.95,-35.07,0,*59
1494814076.42,63457,15.75,74300.8,-3.75,-34.77,-34.95,0,*5E
1494814077.69,63458,15.75,74302.8,-3.73,-34.77,-34.95,0,*57
1494814078.9,63459,15.75,74300.3,-3.75,-34.47,-34.59,0,*53
1494814080.16,63460,15.75,74300.0,-3.75,-34.83,-34.83,0,*56
1494814081.43,63461,15.75,74302.0,-3.75,-34.83,-34.95,0,*50
1494814082.68,63462,15.75,74304.3,-3.75,-34.83,-34.83,0,*54
1494814083.94,63463,15.75,74306.3,-3.75,-34.95,-35.07,0,*5F
1494814085.18,63464,15.75,74300.0,-3.75,-34.65,-34.77,0,*51
1494814086.44,63465,15.75,74300.3,-3.75,-34.65,-34.83,0,*5B
1494814087.68,63466,15.75,74306.8,-3.75,-34.77,-34.83,0,*5B
1494814088.91,63467,15.75,74306.5,-3.77,-34.71,-34.71,0,*53
1494814090.18,63468,15.75,74302.8,-3.77,-34.53,-34.47,0,*59
1494814091.42,63469,15.75,74306.3,-3.77,-34.47,-34.47,0,*5D
1494814092.68,63470,15.75,74304.3,-3.77,-34.71,-34.83,0,*58
1494814093.92,63471,15.75,74302.3,-3.77,-35.01,-35.13,0,*57
1494814095.21,63472,15.75,74304.3,-3.77,-34.53,-34.65,0,*52
1494814096.49,63473,15.75,74304.3,-3.77,-34.65,-34.83,0,*5E
1494814097.75,63474,15.75,74306.0,-3.77,-34.71,-34.83,0,*5C
1494814099.01,63475,15.75,74302.3,-3.77,-34.53,-34.47,0,*55